| time (UTC) | temp C | wind direction | speed KPH | gust KPH | rain 1hr cm | rain 24hr cm | rain mn cm | humidity % | barometer mb |
| 20260904061044 | 14 | 158 | 1.6 | 9.7 | 0.03 | 0.05 | 0.05 | 94 | 1012.9 |
| 20260904060544 | 14 | 153 | 4.8 | 9.7 | 0.03 | 0.03 | 0.03 | 94 | 1012.9 |
| 20260904060100 | 14 | 149 | 4.8 | 9.7 | 0.03 | 0.03 | 0.03 | 94 | 1012.9 |
| 20260904055544 | 14 | 149 | 4.8 | 9.7 | 0.03 | 0.03 | 0.03 | 93 | 1012.9 |
| 20260904055045 | 14 | 149 | 4.8 | 9.7 | 0.03 | 0.03 | 0.03 | 93 | 1012.9 |
| 20260904054554 | 14 | 149 | 3.2 | 8.0 | 0.03 | 0.03 | 0.03 | 93 | 1012.9 |
| 20260904054044 | 14 | 149 | 3.2 | 8.0 | 0.03 | 0.03 | 0.03 | 93 | 1013.1 |
| 20260904053544 | 14 | 153 | 3.2 | 6.4 | 0.03 | 0.03 | 0.03 | 93 | 1013.1 |
| 20260904053101 | 14 | 153 | 1.6 | 4.8 | 0.03 | 0.03 | 0.03 | 93 | 1013.2 |
| 20260904052544 | 14 | 154 | 1.6 | 6.4 | 0.03 | 0.03 | 0.03 | 93 | 1013.3 |
| 20260904052044 | 14 | 154 | 1.6 | 6.4 | 0.03 | 0.03 | 0.03 | 93 | 1013.3 |
| 20260904051607 | 14 | 169 | 3.2 | 6.4 | 0.03 | 0.03 | 0.03 | 93 | 1013.2 |
| 20260904051043 | 15 | 130 | 1.6 | 6.4 | 0.03 | 0.03 | 0.03 | 92 | 1013.3 |
| 20260904050544 | 15 | 0 | 0.0 | 8.0 | 0.00 | 0.00 | 0.00 | 92 | 1013.4 |
| 20260904050057 | 15 | 0 | 0.0 | 8.0 | 0.00 | 0.00 | 0.00 | 92 | 1013.5 |
| 20260904045545 | 15 | 143 | 1.6 | 6.4 | 0.00 | 0.00 | 0.00 | 92 | 1013.5 |
| 20260904045045 | 15 | 137 | 1.6 | 8.0 | 0.00 | 0.00 | 0.00 | 92 | 1013.6 |
| 20260904044604 | 15 | 138 | 3.2 | 8.0 | 0.00 | 0.00 | 0.00 | 91 | 1013.6 |
| 20260904044043 | 15 | 121 | 3.2 | 8.0 | 0.00 | 0.00 | 0.00 | 91 | 1013.5 |
| 20260904043551 | 15 | 122 | 1.6 | 4.8 | 0.00 | 0.00 | 0.00 | 91 | 1013.5 |
| 20260904043102 | 15 | 129 | 0.0 | 3.2 | 0.00 | 0.00 | 0.00 | 91 | 1013.6 |
| 20260904042548 | 15 | 153 | 0.0 | 3.2 | 0.00 | 0.00 | 0.00 | 91 | 1013.6 |
| 20260904042044 | 15 | 0 | 0.0 | 3.2 | 0.00 | 0.00 | 0.00 | 91 | 1013.6 |
| 20260904041607 | 15 | 0 | 0.0 | 3.2 | 0.00 | 0.00 | 0.00 | 91 | 1013.5 |
| 20260904041044 | 15 | 0 | 0.0 | 3.2 | 0.00 | 0.00 | 0.00 | 90 | 1013.5 |
| 20260904040543 | 15 | 0 | 0.0 | 3.2 | 0.00 | 0.00 | 0.00 | 90 | 1013.4 |
| 20260904040110 | 15 | 0 | 0.0 | 4.8 | 0.00 | 0.00 | 0.00 | 90 | 1013.4 |
| 20260904035543 | 15 | 0 | 0.0 | 4.8 | 0.00 | 0.00 | 0.00 | 90 | 1013.3 |
| 20260904035044 | 15 | 136 | 0.0 | 4.8 | 0.00 | 0.00 | 0.00 | 90 | 1013.3 |
| 20260904034613 | 15 | 0 | 0.0 | 1.6 | 0.00 | 0.00 | 0.00 | 90 | 1013.4 |
| 20260904034045 | 15 | 0 | 0.0 | 1.6 | 0.00 | 0.00 | 0.00 | 89 | 1013.3 |
| 20260904033544 | 15 | 0 | 0.0 | 1.6 | 0.00 | 0.00 | 0.00 | 89 | 1013.3 |
| 20260904033104 | 15 | 0 | 0.0 | 1.6 | 0.00 | 0.00 | 0.00 | 89 | 1013.4 |
| 20260904032543 | 15 | 0 | 0.0 | 1.6 | 0.00 | 0.00 | 0.00 | 89 | 1013.3 |
| 20260904032043 | 15 | 0 | 0.0 | 1.6 | 0.00 | 0.00 | 0.00 | 89 | 1013.3 |
| 20260904031558 | 15 | 0 | 0.0 | 1.6 | 0.00 | 0.00 | 0.00 | 89 | 1013.2 |
| 20260904031044 | 15 | 0 | 0.0 | 1.6 | 0.00 | 0.00 | 0.00 | 89 | 1013.2 |
| 20260904030544 | 15 | 0 | 0.0 | 3.2 | 0.00 | 0.00 | 0.00 | 89 | 1013.3 |
| 20260904030056 | 15 | 0 | 0.0 | 4.8 | 0.00 | 0.00 | 0.00 | 89 | 1013.2 |
| 20260904025545 | 15 | 0 | 0.0 | 4.8 | 0.00 | 0.00 | 0.00 | 88 | 1013.2 |
| 20260904025049 | 15 | 252 | 0.0 | 3.2 | 0.00 | 0.00 | 0.00 | 88 | 1013.2 |
| 20260904024549 | 15 | 0 | 0.0 | 1.6 | 0.00 | 0.00 | 0.00 | 87 | 1013.3 |
| 20260904024048 | 15 | 0 | 0.0 | 1.6 | 0.00 | 0.00 | 0.00 | 87 | 1013.4 |
| 20260904023544 | 15 | 0 | 0.0 | 3.2 | 0.00 | 0.00 | 0.00 | 87 | 1013.4 |
| 20260904023100 | 16 | 0 | 0.0 | 3.2 | 0.00 | 0.00 | 0.00 | 86 | 1013.3 |
| 20260904022600 | 16 | 0 | 0.0 | 3.2 | 0.00 | 0.00 | 0.00 | 86 | 1013.4 |
| 20260904022045 | 16 | 0 | 0.0 | 3.2 | 0.00 | 0.00 | 0.00 | 86 | 1013.5 |
| 20260904021606 | 16 | 0 | 0.0 | 4.8 | 0.00 | 0.00 | 0.00 | 85 | 1013.5 |
| 20260904021044 | 16 | 0 | 0.0 | 4.8 | 0.00 | 0.00 | 0.00 | 85 | 1013.4 |
| 20260904020545 | 16 | 238 | 0.0 | 4.8 | 0.00 | 0.00 | 0.00 | 85 | 1013.4 |
| 20260904020057 | 16 | 207 | 0.0 | 4.8 | 0.00 | 0.00 | 0.00 | 84 | 1013.5 |
| 20260904015545 | 16 | 0 | 1.6 | 4.8 | 0.00 | 0.00 | 0.00 | 83 | 1013.5 |
| 20260904015045 | 16 | 0 | 0.0 | 4.8 | 0.00 | 0.00 | 0.00 | 83 | 1013.5 |
| 20260904014640 | 16 | 0 | 0.0 | 3.2 | 0.00 | 0.00 | 0.00 | 82 | 1013.5 |
| 20260904014045 | 16 | 0 | 0.0 | 4.8 | 0.00 | 0.00 | 0.00 | 81 | 1013.7 |
| 20260904013545 | 16 | 0 | 0.0 | 6.4 | 0.00 | 0.00 | 0.00 | 81 | 1013.7 |
| 20260904013059 | 16 | 0 | 3.2 | 6.4 | 0.00 | 0.00 | 0.00 | 80 | 1013.7 |
| 20260904012545 | 17 | 229 | 1.6 | 4.8 | 0.00 | 0.00 | 0.00 | 80 | 1013.7 |
| 20260904012045 | 17 | 0 | 1.6 | 6.4 | 0.00 | 0.00 | 0.00 | 79 | 1013.8 |
| 20260904011619 | 17 | 0 | 1.6 | 6.4 | 0.00 | 0.00 | 0.00 | 79 | 1013.7 |
| 20260904011046 | 17 | 250 | 1.6 | 4.8 | 0.00 | 0.00 | 0.00 | 79 | 1013.7 |
| 20260904010544 | 17 | 250 | 0.0 | 3.2 | 0.00 | 0.00 | 0.00 | 78 | 1013.7 |
| 20260904010103 | 17 | 0 | 0.0 | 4.8 | 0.00 | 0.00 | 0.00 | 77 | 1013.8 |
| 20260904005548 | 17 | 321 | 1.6 | 6.4 | 0.00 | 0.00 | 0.00 | 76 | 1013.8 |
| 20260904005044 | 17 | 321 | 1.6 | 6.4 | 0.00 | 0.00 | 0.00 | 76 | 1013.8 |
| 20260904004605 | 18 | 311 | 0.0 | 4.8 | 0.00 | 0.00 | 0.00 | 75 | 1013.8 |
| 20260904004045 | 18 | 311 | 0.0 | 8.0 | 0.00 | 0.00 | 0.00 | 74 | 1013.7 |
| 20260904003543 | 18 | 247 | 1.6 | 8.0 | 0.00 | 0.00 | 0.00 | 74 | 1013.8 |
| 20260904003104 | 18 | 0 | 1.6 | 4.8 | 0.00 | 0.00 | 0.00 | 74 | 1013.7 |
| 20260904002545 | 18 | 275 | 0.0 | 6.4 | 0.00 | 0.00 | 0.00 | 73 | 1013.8 |
| 20260904002047 | 18 | 0 | 3.2 | 6.4 | 0.00 | 0.00 | 0.00 | 72 | 1013.8 |
| 20260904001559 | 18 | 290 | 1.6 | 6.4 | 0.00 | 0.00 | 0.00 | 72 | 1013.8 |
| 20260904001044 | 18 | 282 | 3.2 | 6.4 | 0.00 | 0.00 | 0.00 | 71 | 1013.7 |
| 20260904000546 | 19 | 234 | 1.6 | 6.4 | 0.00 | 0.00 | 0.00 | 70 | 1013.7 |
| 20260904000058 | 19 | 242 | 1.6 | 4.8 | 0.00 | 0.00 | 0.00 | 71 | 1013.9 |
| 20260903235544 | 19 | 282 | 1.6 | 6.4 | 0.00 | 0.00 | 0.00 | 70 | 1013.9 |
| 20260903235045 | 19 | 282 | 1.6 | 6.4 | 0.00 | 0.00 | 0.00 | 69 | 1013.9 |
| 20260903234604 | 20 | 342 | 1.6 | 4.8 | 0.00 | 0.00 | 0.00 | 69 | 1013.9 |
| 20260903234045 | 20 | 0 | 1.6 | 9.7 | 0.00 | 0.00 | 0.00 | 68 | 1013.9 |
| 20260903233545 | 20 | 349 | 1.6 | 9.7 | 0.00 | 0.00 | 0.00 | 68 | 1014.0 |
| 20260903233113 | 20 | 232 | 3.2 | 6.4 | 0.00 | 0.00 | 0.00 | 67 | 1013.9 |
| 20260903232544 | 20 | 297 | 3.2 | 11.3 | 0.00 | 0.00 | 0.00 | 67 | 1014.0 |
| 20260903232045 | 21 | 254 | 3.2 | 11.3 | 0.00 | 0.00 | 0.00 | 65 | 1014.0 |
| 20260903231557 | 21 | 220 | 1.6 | 6.4 | 0.00 | 0.00 | 0.00 | 64 | 1014.1 |
| 20260903231044 | 21 | 253 | 1.6 | 4.8 | 0.00 | 0.00 | 0.00 | 64 | 1014.2 |
| 20260903230544 | 21 | 180 | 1.6 | 6.4 | 0.00 | 0.00 | 0.00 | 64 | 1014.1 |
| 20260903230057 | 21 | 98 | 1.6 | 6.4 | 0.00 | 0.00 | 0.00 | 63 | 1014.2 |
| 20260903225544 | 21 | 290 | 3.2 | 11.3 | 0.00 | 0.00 | 0.00 | 64 | 1014.1 |
| 20260903225044 | 21 | 223 | 1.6 | 11.3 | 0.00 | 0.00 | 0.00 | 64 | 1014.2 |
| 20260903224602 | 21 | 255 | 1.6 | 6.4 | 0.00 | 0.00 | 0.00 | 65 | 1014.3 |
| 20260903224047 | 21 | 300 | 1.6 | 6.4 | 0.00 | 0.00 | 0.00 | 65 | 1014.4 |
| 20260903223544 | 21 | 312 | 3.2 | 11.3 | 0.00 | 0.00 | 0.00 | 64 | 1014.3 |
| 20260903223114 | 22 | 232 | 1.6 | 14.5 | 0.00 | 0.00 | 0.00 | 62 | 1014.4 |
| 20260903222543 | 22 | 281 | 0.0 | 14.5 | 0.00 | 0.00 | 0.00 | 63 | 1014.4 |
| 20260903222045 | 22 | 311 | 3.2 | 6.4 | 0.00 | 0.00 | 0.00 | 62 | 1014.4 |
| 20260903221556 | 22 | 185 | 1.6 | 6.4 | 0.00 | 0.00 | 0.00 | 61 | 1014.5 |
| 20260903221044 | 22 | 0 | 1.6 | 6.4 | 0.00 | 0.00 | 0.00 | 62 | 1014.6 |
| 20260903220544 | 22 | 209 | 1.6 | 6.4 | 0.00 | 0.00 | 0.00 | 62 | 1014.6 |
| 20260903220117 | 22 | 0 | 0.0 | 6.4 | 0.00 | 0.00 | 0.00 | 64 | 1014.7 |
| 20260903215545 | 22 | 240 | 1.6 | 6.4 | 0.00 | 0.00 | 0.00 | 62 | 1014.7 |
| 20260903215044 | 22 | 133 | 0.0 | 14.5 | 0.00 | 0.00 | 0.00 | 63 | 1014.9 |
| 20260903214553 | 21 | 210 | 1.6 | 14.5 | 0.00 | 0.00 | 0.00 | 64 | 1014.9 |
| 20260903214044 | 22 | 222 | 3.2 | 11.3 | 0.00 | 0.00 | 0.00 | 63 | 1015.0 |
| 20260903213544 | 21 | 93 | 1.6 | 8.0 | 0.00 | 0.00 | 0.00 | 65 | 1014.8 |
| 20260903213100 | 21 | 281 | 1.6 | 8.0 | 0.00 | 0.00 | 0.00 | 66 | 1014.9 |
| 20260903212548 | 21 | 279 | 1.6 | 8.0 | 0.00 | 0.00 | 0.00 | 66 | 1015.0 |
| 20260903212045 | 21 | 325 | 1.6 | 4.8 | 0.00 | 0.00 | 0.00 | 67 | 1015.0 |
| 20260903211557 | 20 | 336 | 1.6 | 8.0 | 0.00 | 0.00 | 0.00 | 67 | 1015.0 |
| 20260903211044 | 20 | 277 | 1.6 | 11.3 | 0.00 | 0.00 | 0.00 | 67 | 1015.0 |
| 20260903210544 | 20 | 229 | 4.8 | 11.3 | 0.00 | 0.00 | 0.00 | 68 | 1015.0 |
| 20260903210058 | 20 | 0 | 3.2 | 8.0 | 0.00 | 0.00 | 0.00 | 68 | 1015.0 |
| 20260903205547 | 20 | 298 | 1.6 | 6.4 | 0.00 | 0.00 | 0.00 | 67 | 1015.0 |
| 20260903205044 | 20 | 248 | 1.6 | 6.4 | 0.00 | 0.00 | 0.00 | 69 | 1015.1 |
| 20260903204553 | 20 | 256 | 1.6 | 6.4 | 0.00 | 0.00 | 0.00 | 69 | 1015.1 |
| 20260903204044 | 20 | 298 | 3.2 | 8.0 | 0.00 | 0.00 | 0.00 | 69 | 1015.0 |
| 20260903203544 | 20 | 212 | 3.2 | 8.0 | 0.00 | 0.00 | 0.00 | 69 | 1015.0 |
| 20260903203108 | 20 | 303 | 3.2 | 8.0 | 0.00 | 0.00 | 0.00 | 69 | 1015.0 |
| 20260903202544 | 20 | 292 | 3.2 | 6.4 | 0.00 | 0.00 | 0.00 | 68 | 1015.0 |
| 20260903202044 | 20 | 201 | 1.6 | 6.4 | 0.00 | 0.00 | 0.00 | 69 | 1015.1 |
| 20260903201556 | 20 | 0 | 1.6 | 6.4 | 0.00 | 0.00 | 0.00 | 69 | 1015.1 |
| 20260903201045 | 20 | 311 | 3.2 | 6.4 | 0.00 | 0.00 | 0.00 | 68 | 1015.2 |
| 20260903200544 | 20 | 0 | 1.6 | 6.4 | 0.00 | 0.00 | 0.00 | 70 | 1015.2 |
| 20260903200111 | 20 | 247 | 3.2 | 8.0 | 0.00 | 0.00 | 0.00 | 69 | 1015.2 |
| 20260903195543 | 20 | 197 | 1.6 | 8.0 | 0.00 | 0.00 | 0.00 | 70 | 1015.2 |
| 20260903195044 | 19 | 305 | 1.6 | 8.0 | 0.00 | 0.00 | 0.00 | 72 | 1015.2 |
| 20260903194559 | 19 | 293 | 3.2 | 8.0 | 0.00 | 0.00 | 0.00 | 71 | 1015.4 |
| 20260903194045 | 19 | 271 | 1.6 | 6.4 | 0.00 | 0.00 | 0.00 | 72 | 1015.4 |
| 20260903193544 | 19 | 221 | 0.0 | 8.0 | 0.00 | 0.00 | 0.00 | 71 | 1015.4 |
| 20260903193054 | 19 | 290 | 1.6 | 8.0 | 0.00 | 0.00 | 0.00 | 70 | 1015.4 |
| 20260903192545 | 19 | 302 | 3.2 | 6.4 | 0.00 | 0.00 | 0.00 | 70 | 1015.6 |
| 20260903192043 | 19 | 161 | 1.6 | 6.4 | 0.00 | 0.00 | 0.00 | 70 | 1015.6 |
| 20260903191602 | 18 | 0 | 0.0 | 4.8 | 0.00 | 0.00 | 0.00 | 73 | 1015.7 |
| 20260903191044 | 18 | 0 | 0.0 | 4.8 | 0.00 | 0.00 | 0.00 | 73 | 1015.9 |
| 20260903190546 | 18 | 329 | 0.0 | 4.8 | 0.00 | 0.00 | 0.00 | 73 | 1015.9 |
| 20260903190057 | 18 | 0 | 0.0 | 4.8 | 0.00 | 0.00 | 0.00 | 74 | 1016.0 |
| 20260903185544 | 18 | 0 | 0.0 | 4.8 | 0.00 | 0.00 | 0.00 | 74 | 1016.0 |
| 20260903185044 | 18 | 0 | 0.0 | 4.8 | 0.00 | 0.00 | 0.00 | 74 | 1016.0 |
| 20260903184555 | 18 | 329 | 1.6 | 6.4 | 0.00 | 0.00 | 0.00 | 73 | 1016.1 |
| 20260903184045 | 18 | 318 | 3.2 | 6.4 | 0.00 | 0.00 | 0.00 | 73 | 1016.1 |
| 20260903183544 | 18 | 323 | 1.6 | 6.4 | 0.00 | 0.00 | 0.00 | 73 | 1016.1 |
| 20260903183057 | 18 | 0 | 1.6 | 6.4 | 0.00 | 0.00 | 0.00 | 73 | 1016.1 |
| 20260903182544 | 18 | 0 | 0.0 | 6.4 | 0.00 | 0.00 | 0.00 | 73 | 1016.1 |
| 20260903182043 | 18 | 0 | 0.0 | 3.2 | 0.00 | 0.00 | 0.00 | 73 | 1016.0 |
| 20260903181603 | 17 | 0 | 0.0 | 1.6 | 0.00 | 0.00 | 0.00 | 74 | 1016.0 |
| 20260903181046 | 17 | 0 | 0.0 | 1.6 | 0.00 | 0.00 | 0.00 | 76 | 1016.2 |
| 20260903180545 | 17 | 0 | 0.0 | 1.6 | 0.00 | 0.00 | 0.00 | 77 | 1016.1 |
| 20260903180058 | 16 | 0 | 0.0 | 1.6 | 0.00 | 0.00 | 0.00 | 78 | 1016.0 |
| 20260903175544 | 16 | 232 | 0.0 | 1.6 | 0.00 | 0.00 | 0.00 | 80 | 1016.1 |
| 20260903175043 | 16 | 0 | 0.0 | 1.6 | 0.00 | 0.00 | 0.00 | 80 | 1016.2 |
| 20260903174555 | 16 | 0 | 0.0 | 1.6 | 0.00 | 0.00 | 0.00 | 81 | 1016.2 |
| 20260903174044 | 16 | 0 | 0.0 | 0.0 | 0.00 | 0.00 | 0.00 | 82 | 1016.1 |
| 20260903173547 | 15 | 0 | 0.0 | 0.0 | 0.00 | 0.00 | 0.00 | 81 | 1016.1 |
| 20260903173058 | 15 | 0 | 0.0 | 0.0 | 0.00 | 0.00 | 0.00 | 83 | 1016.1 |
| 20260903172544 | 15 | 0 | 0.0 | 0.0 | 0.00 | 0.00 | 0.00 | 84 | 1016.1 |
| 20260903172044 | 15 | 0 | 0.0 | 1.6 | 0.00 | 0.00 | 0.00 | 85 | 1016.0 |
| 20260903171601 | 15 | 0 | 0.0 | 1.6 | 0.00 | 0.00 | 0.00 | 86 | 1016.1 |
| 20260903171045 | 14 | 0 | 0.0 | 0.0 | 0.00 | 0.00 | 0.00 | 86 | 1016.1 |
| 20260903170544 | 14 | 0 | 0.0 | 0.0 | 0.00 | 0.00 | 0.00 | 86 | 1016.1 |
| 20260903165544 | 13 | 0 | 0.0 | 0.0 | 0.00 | 0.00 | 0.00 | 88 | 1016.1 |
| 20260903165048 | 13 | 0 | 0.0 | 0.0 | 0.00 | 0.00 | 0.00 | 89 | 1016.2 |
| 20260903164557 | 13 | 0 | 0.0 | 3.2 | 0.00 | 0.00 | 0.00 | 90 | 1016.2 |
| 20260903164044 | 13 | 0 | 0.0 | 3.2 | 0.00 | 0.00 | 0.00 | 90 | 1016.1 |
| 20260903163544 | 13 | 28 | 0.0 | 4.8 | 0.00 | 0.00 | 0.00 | 91 | 1016.2 |
| 20260903163055 | 13 | 28 | 1.6 | 4.8 | 0.00 | 0.00 | 0.00 | 92 | 1016.3 |
| 20260903162544 | 12 | 0 | 1.6 | 4.8 | 0.00 | 0.00 | 0.00 | 93 | 1016.1 |
| 20260903162044 | 12 | 0 | 1.6 | 4.8 | 0.00 | 0.00 | 0.00 | 94 | 1016.1 |
| 20260903161603 | 12 | 0 | 0.0 | 3.2 | 0.00 | 0.00 | 0.00 | 94 | 1016.2 |
| 20260903161044 | 12 | 37 | 0.0 | 3.2 | 0.00 | 0.00 | 0.00 | 95 | 1016.3 |
| 20260903160544 | 12 | 0 | 0.0 | 3.2 | 0.00 | 0.00 | 0.00 | 95 | 1016.3 |
| 20260903160057 | 12 | 0 | 0.0 | 4.8 | 0.00 | 0.00 | 0.00 | 95 | 1016.2 |
| 20260903155546 | 12 | 0 | 0.0 | 4.8 | 0.00 | 0.00 | 0.00 | 95 | 1016.2 |
| 20260903155043 | 12 | 0 | 1.6 | 4.8 | 0.00 | 0.00 | 0.00 | 95 | 1016.3 |
| 20260903154554 | 11 | 318 | 1.6 | 4.8 | 0.00 | 0.00 | 0.00 | 95 | 1016.4 |
| 20260903154044 | 11 | 312 | 1.6 | 4.8 | 0.00 | 0.00 | 0.00 | 95 | 1016.2 |
| 20260903153543 | 11 | 312 | 3.2 | 8.0 | 0.00 | 0.00 | 0.00 | 95 | 1016.3 |
| 20260903153104 | 11 | 312 | 3.2 | 8.0 | 0.00 | 0.00 | 0.00 | 95 | 1016.3 |
| 20260903152544 | 11 | 311 | 4.8 | 8.0 | 0.00 | 0.00 | 0.00 | 95 | 1016.4 |
| 20260903152044 | 11 | 315 | 3.2 | 6.4 | 0.00 | 0.00 | 0.00 | 95 | 1016.3 |
| 20260903151551 | 11 | 315 | 3.2 | 6.4 | 0.00 | 0.00 | 0.00 | 95 | 1016.3 |
| 20260903151044 | 11 | 305 | 3.2 | 8.0 | 0.00 | 0.00 | 0.00 | 94 | 1016.3 |
| 20260903150545 | 11 | 305 | 3.2 | 8.0 | 0.00 | 0.00 | 0.00 | 94 | 1016.3 |
| 20260903150111 | 11 | 300 | 3.2 | 8.0 | 0.00 | 0.00 | 0.00 | 94 | 1016.3 |
| 20260903145543 | 11 | 311 | 4.8 | 8.0 | 0.00 | 0.00 | 0.00 | 94 | 1016.2 |
| 20260903145043 | 11 | 327 | 4.8 | 8.0 | 0.00 | 0.00 | 0.00 | 94 | 1016.3 |
| 20260903144610 | 11 | 319 | 4.8 | 8.0 | 0.00 | 0.00 | 0.00 | 94 | 1016.3 |
| 20260903144044 | 11 | 313 | 4.8 | 8.0 | 0.00 | 0.00 | 0.00 | 94 | 1016.4 |
| 20260903143543 | 11 | 306 | 4.8 | 8.0 | 0.00 | 0.00 | 0.00 | 94 | 1016.3 |
| 20260903143054 | 11 | 314 | 4.8 | 8.0 | 0.00 | 0.00 | 0.00 | 94 | 1016.2 |
| 20260903142543 | 11 | 304 | 3.2 | 8.0 | 0.00 | 0.00 | 0.00 | 94 | 1016.2 |
| 20260903142043 | 11 | 319 | 4.8 | 12.9 | 0.00 | 0.00 | 0.00 | 94 | 1016.1 |
| 20260903141553 | 10 | 311 | 6.4 | 12.9 | 0.00 | 0.00 | 0.00 | 94 | 1016.1 |
| 20260903141044 | 10 | 294 | 4.8 | 8.0 | 0.00 | 0.00 | 0.00 | 93 | 1016.1 |
| 20260903140544 | 10 | 312 | 3.2 | 4.8 | 0.00 | 0.00 | 0.00 | 93 | 1016.0 |
| 20260903140104 | 10 | 312 | 1.6 | 3.2 | 0.00 | 0.00 | 0.00 | 93 | 1016.0 |
| 20260903135544 | 10 | 0 | 0.0 | 0.0 | 0.00 | 0.00 | 0.00 | 93 | 1016.0 |
| 20260903135045 | 10 | 0 | 0.0 | 0.0 | 0.00 | 0.00 | 0.00 | 93 | 1015.8 |
| 20260903134614 | 10 | 0 | 0.0 | 1.6 | 0.00 | 0.00 | 0.00 | 93 | 1015.8 |
| 20260903134047 | 10 | 0 | 0.0 | 3.2 | 0.00 | 0.00 | 0.00 | 93 | 1015.8 |
| 20260903133547 | 10 | 0 | 0.0 | 4.8 | 0.00 | 0.00 | 0.00 | 93 | 1015.9 |
| 20260903133106 | 10 | 312 | 0.0 | 4.8 | 0.00 | 0.00 | 0.00 | 93 | 1015.8 |
| 20260903132543 | 10 | 312 | 1.6 | 6.4 | 0.00 | 0.00 | 0.00 | 93 | 1015.9 |
| 20260903132045 | 11 | 312 | 3.2 | 8.0 | 0.00 | 0.00 | 0.00 | 93 | 1015.9 |
| 20260903131605 | 11 | 312 | 4.8 | 8.0 | 0.00 | 0.00 | 0.00 | 92 | 1015.9 |
| 20260903131045 | 11 | 313 | 4.8 | 8.0 | 0.00 | 0.00 | 0.00 | 92 | 1015.8 |
| 20260903130544 | 11 | 316 | 4.8 | 8.0 | 0.00 | 0.00 | 0.00 | 92 | 1015.9 |
| 20260903130105 | 11 | 309 | 4.8 | 8.0 | 0.00 | 0.00 | 0.00 | 92 | 1015.8 |
| 20260903125546 | 11 | 317 | 1.6 | 6.4 | 0.00 | 0.00 | 0.00 | 91 | 1015.8 |
| 20260903125044 | 11 | 317 | 3.2 | 6.4 | 0.00 | 0.00 | 0.00 | 91 | 1015.8 |
| 20260903124600 | 11 | 317 | 3.2 | 8.0 | 0.00 | 0.00 | 0.00 | 91 | 1015.8 |
| 20260903124043 | 11 | 318 | 3.2 | 8.0 | 0.00 | 0.00 | 0.00 | 90 | 1015.9 |
| 20260903123546 | 11 | 318 | 1.6 | 6.4 | 0.00 | 0.00 | 0.00 | 90 | 1016.0 |
| 20260903123057 | 11 | 317 | 3.2 | 6.4 | 0.00 | 0.00 | 0.00 | 90 | 1016.0 |
| 20260903122543 | 11 | 317 | 3.2 | 6.4 | 0.00 | 0.00 | 0.00 | 89 | 1016.1 |
| 20260903122043 | 11 | 321 | 3.2 | 6.4 | 0.00 | 0.00 | 0.00 | 89 | 1016.1 |
| 20260903121601 | 11 | 321 | 3.2 | 6.4 | 0.00 | 0.00 | 0.00 | 88 | 1016.1 |
| 20260903121044 | 11 | 313 | 3.2 | 8.0 | 0.00 | 0.00 | 0.00 | 87 | 1016.0 |
| 20260903120544 | 12 | 311 | 3.2 | 8.0 | 0.00 | 0.00 | 0.00 | 86 | 1016.1 |
| 20260903120109 | 12 | 319 | 3.2 | 6.4 | 0.00 | 0.00 | 0.00 | 85 | 1016.0 |
| 20260903115543 | 12 | 319 | 0.0 | 6.4 | 0.00 | 0.00 | 0.00 | 85 | 1016.1 |
| 20260903115043 | 12 | 319 | 1.6 | 6.4 | 0.00 | 0.00 | 0.00 | 85 | 1016.2 |
| 20260903114555 | 12 | 319 | 1.6 | 6.4 | 0.00 | 0.00 | 0.00 | 85 | 1016.1 |
| 20260903114043 | 12 | 317 | 3.2 | 6.4 | 0.00 | 0.00 | 0.00 | 85 | 1016.1 |
| 20260903113544 | 12 | 321 | 4.8 | 9.7 | 0.00 | 0.00 | 0.00 | 85 | 1016.2 |
| 20260903113053 | 12 | 316 | 3.2 | 11.3 | 0.00 | 0.00 | 0.00 | 84 | 1016.3 |
| 20260903112543 | 12 | 316 | 4.8 | 11.3 | 0.00 | 0.00 | 0.00 | 84 | 1016.3 |
| 20260903112043 | 12 | 312 | 4.8 | 8.0 | 0.00 | 0.00 | 0.00 | 83 | 1016.4 |
| 20260903111551 | 12 | 309 | 4.8 | 11.3 | 0.00 | 0.00 | 0.00 | 81 | 1016.4 |
| 20260903111044 | 12 | 315 | 4.8 | 11.3 | 0.00 | 0.00 | 0.00 | 80 | 1016.5 |
| 20260903110544 | 12 | 311 | 4.8 | 11.3 | 0.00 | 0.00 | 0.00 | 79 | 1016.6 |
| 20260903110104 | 12 | 302 | 6.4 | 9.7 | 0.00 | 0.00 | 0.00 | 78 | 1016.5 |
| 20260903105547 | 12 | 312 | 4.8 | 11.3 | 0.00 | 0.00 | 0.00 | 77 | 1016.6 |
| 20260903105044 | 12 | 312 | 4.8 | 12.9 | 0.00 | 0.00 | 0.00 | 77 | 1016.6 |
| 20260903104622 | 12 | 311 | 6.4 | 12.9 | 0.00 | 0.00 | 0.00 | 75 | 1016.6 |
| 20260903104043 | 12 | 318 | 6.4 | 12.9 | 0.00 | 0.00 | 0.00 | 75 | 1016.6 |
| 20260903103546 | 12 | 306 | 6.4 | 12.9 | 0.00 | 0.00 | 0.00 | 75 | 1016.5 |
| 20260903103104 | 12 | 306 | 6.4 | 12.9 | 0.00 | 0.00 | 0.00 | 75 | 1016.6 |
| 20260903102543 | 12 | 311 | 6.4 | 11.3 | 0.00 | 0.00 | 0.00 | 75 | 1016.6 |
| 20260903102042 | 12 | 309 | 4.8 | 11.3 | 0.00 | 0.00 | 0.00 | 74 | 1016.5 |
| 20260903101604 | 12 | 311 | 4.8 | 11.3 | 0.00 | 0.00 | 0.00 | 74 | 1016.6 |
| 20260903101047 | 12 | 313 | 6.4 | 11.3 | 0.00 | 0.00 | 0.00 | 74 | 1016.6 |
| 20260903100544 | 12 | 308 | 4.8 | 11.3 | 0.00 | 0.00 | 0.00 | 74 | 1016.6 |
| 20260903100217 | 12 | 311 | 6.4 | 11.3 | 0.00 | 0.00 | 0.00 | 74 | 1016.6 |
| 20260903095542 | 12 | 311 | 4.8 | 11.3 | 0.00 | 0.00 | 0.00 | 75 | 1016.6 |
| 20260903095043 | 12 | 306 | 4.8 | 11.3 | 0.00 | 0.00 | 0.00 | 75 | 1016.7 |
| 20260903094605 | 12 | 300 | 6.4 | 8.0 | 0.00 | 0.00 | 0.00 | 76 | 1016.7 |
| 20260903094043 | 12 | 311 | 6.4 | 8.0 | 0.00 | 0.00 | 0.00 | 76 | 1016.8 |
| 20260903093543 | 12 | 311 | 4.8 | 9.7 | 0.00 | 0.00 | 0.00 | 77 | 1016.8 |
| 20260903093105 | 12 | 309 | 6.4 | 11.3 | 0.00 | 0.00 | 0.00 | 76 | 1016.9 |
| 20260903092545 | 12 | 323 | 4.8 | 11.3 | 0.00 | 0.00 | 0.00 | 76 | 1016.8 |
| 20260903092044 | 12 | 305 | 4.8 | 11.3 | 0.00 | 0.00 | 0.00 | 75 | 1016.9 |
| 20260903091615 | 12 | 311 | 4.8 | 12.9 | 0.00 | 0.00 | 0.00 | 75 | 1017.0 |
| 20260903091043 | 12 | 312 | 8.0 | 12.9 | 0.00 | 0.00 | 0.00 | 74 | 1017.0 |
| 20260903090543 | 12 | 313 | 4.8 | 11.3 | 0.00 | 0.00 | 0.00 | 74 | 1017.1 |
| 20260903090059 | 12 | 311 | 4.8 | 11.3 | 0.00 | 0.00 | 0.00 | 74 | 1017.1 |
| 20260903085543 | 12 | 306 | 6.4 | 11.3 | 0.00 | 0.00 | 0.00 | 74 | 1017.0 |
| 20260903085042 | 12 | 308 | 6.4 | 11.3 | 0.00 | 0.00 | 0.00 | 75 | 1017.1 |
| 20260903084600 | 12 | 310 | 6.4 | 11.3 | 0.00 | 0.00 | 0.00 | 76 | 1017.0 |
| 20260903084043 | 12 | 312 | 6.4 | 11.3 | 0.00 | 0.00 | 0.00 | 78 | 1017.1 |
| 20260903083546 | 12 | 319 | 4.8 | 8.0 | 0.00 | 0.00 | 0.00 | 81 | 1017.1 |
| 20260903083059 | 12 | 323 | 4.8 | 8.0 | 0.00 | 0.00 | 0.00 | 82 | 1017.1 |
| 20260903082543 | 12 | 313 | 4.8 | 8.0 | 0.00 | 0.00 | 0.00 | 83 | 1017.2 |
| 20260903082044 | 11 | 315 | 4.8 | 8.0 | 0.00 | 0.00 | 0.00 | 83 | 1017.2 |
| 20260903081549 | 11 | 315 | 4.8 | 8.0 | 0.00 | 0.00 | 0.00 | 84 | 1017.2 |
| 20260903081043 | 11 | 315 | 4.8 | 8.0 | 0.00 | 0.00 | 0.00 | 86 | 1017.3 |
| 20260903080542 | 11 | 315 | 4.8 | 8.0 | 0.00 | 0.00 | 0.00 | 89 | 1017.2 |
| 20260903075544 | 11 | 317 | 4.8 | 8.0 | 0.00 | 0.00 | 0.00 | 90 | 1017.3 |
| 20260903075043 | 11 | 316 | 6.4 | 8.0 | 0.00 | 0.00 | 0.00 | 91 | 1017.1 |
| 20260903074603 | 11 | 316 | 4.8 | 11.3 | 0.00 | 0.00 | 0.00 | 92 | 1017.2 |
| 20260903074043 | 11 | 315 | 4.8 | 12.9 | 0.00 | 0.00 | 0.00 | 92 | 1017.1 |
| 20260903073543 | 11 | 315 | 6.4 | 12.9 | 0.00 | 0.00 | 0.00 | 92 | 1017.1 |
| 20260903073059 | 11 | 311 | 4.8 | 8.0 | 0.00 | 0.00 | 0.00 | 92 | 1017.1 |
| 20260903072543 | 11 | 315 | 4.8 | 8.0 | 0.00 | 0.00 | 0.00 | 91 | 1017.0 |
| 20260903072043 | 11 | 305 | 4.8 | 8.0 | 0.00 | 0.00 | 0.00 | 90 | 1016.9 |
| 20260903071614 | 11 | 316 | 4.8 | 9.7 | 0.00 | 0.00 | 0.00 | 89 | 1017.0 |
| 20260903071042 | 11 | 313 | 4.8 | 12.9 | 0.00 | 0.00 | 0.00 | 88 | 1017.0 |
| 20260903070542 | 11 | 315 | 6.4 | 14.5 | 0.00 | 0.00 | 0.00 | 89 | 1017.0 |
| 20260903070100 | 11 | 312 | 8.0 | 14.5 | 0.00 | 0.00 | 0.00 | 90 | 1017.0 |
| 20260903065546 | 11 | 302 | 9.7 | 14.5 | 0.00 | 0.00 | 0.00 | 91 | 1016.8 |
| 20260903065043 | 11 | 313 | 8.0 | 12.9 | 0.00 | 0.00 | 0.00 | 92 | 1016.9 |
| 20260903064559 | 11 | 333 | 8.0 | 12.9 | 0.00 | 0.00 | 0.00 | 92 | 1016.9 |
| 20260903064043 | 11 | 315 | 6.4 | 11.3 | 0.00 | 0.00 | 0.00 | 92 | 1016.9 |
| 20260903063543 | 11 | 315 | 6.4 | 11.3 | 0.00 | 0.00 | 0.00 | 92 | 1016.9 |
| 20260903063106 | 11 | 307 | 4.8 | 9.7 | 0.00 | 0.00 | 0.00 | 92 | 1017.0 |
| 20260903062547 | 11 | 316 | 4.8 | 9.7 | 0.00 | 0.00 | 0.00 | 92 | 1017.0 |
| 20260903062043 | 11 | 317 | 6.4 | 11.3 | 0.00 | 0.00 | 0.00 | 92 | 1017.0 |
| 20260903061600 | 11 | 312 | 6.4 | 11.3 | 0.00 | 0.00 | 0.00 | 92 | 1017.1 |